The Dalles, WA

2:32 AM PDT on April 19, 2018 (GMT -0700)
Columbia Gorge Regional-The Dalles

Weather History for KDLS - July, 2012

Change the Weather History Date:

Thursday, July 5, 2012

  Actual Average Record
Temperature  
Mean Temperature 72 °F -  
Max Temperature 89 °F 83 °F 103 °F (1975)
Min Temperature 55 °F 59 °F 47 °F (1977)
Cooling Degree Days 7    
Growing Degree Days 22 (Base 50)    
Moisture  
Dew Point 45 °F    
Average Humidity 43    
Maximum Humidity 69    
Minimum Humidity 19    
Precipitation  
Precipitation 0.00 in - - ()
Sea Level Pressure  
Sea Level Pressure 29.92 in    
Wind  
Wind Speed 6 mph (NW)    
Max Wind Speed 15 mph    
Max Gust Speed 22 mph    
Visibility 10 miles    
Events      
Averages and records for this station are not official NWS values.
T = Trace of Precipitation, MM = Missing Value Source: NWS Daily Summary

Daily Weather History Graph

Daily Weather History Graph

Search for Another Location

Airport or City:

Astronomy

Jul. 05, 2012 Rise Set
Actual Time 5:22 AM PDT 8:56 PM PDT
Civil Twilight 4:44 AM PDT 9:33 PM PDT
Nautical Twilight 3:54 AM PDT 10:23 PM PDT
Astronomical Twilight 2:48 AM PDT 11:28 PM PDT
Moon 10:04 PM PDT (7/5) 7:48 AM PDT (7/5)
Length of Visible Light 16h 48m
Length of Day
15h 33m
Waning Gibbous, 95% of the Moon is Illuminated
Jul 5
Waning Gibbous
Jul 10
Last Quarter
Jul 18
New
Jul 26
First Quarter
Aug 1
Full

Hourly Weather History & Observations

Time (PDT) Temp. Dew Point Humidity Pressure Visibility Wind Dir Wind Speed Gust Speed Precip Events Conditions
12:53 AM 61.0 °F 46.0 °F 58% 29.92 in 10.0 mi Calm Calm - N/A   Clear
1:53 AM 59.0 °F 44.1 °F 58% 29.92 in 10.0 mi SW 3.5 mph - N/A   Clear
2:53 AM 57.0 °F 45.0 °F 64% 29.93 in 10.0 mi Calm Calm - N/A   Clear
3:53 AM 55.0 °F 44.1 °F 67% 29.94 in 10.0 mi East 3.5 mph - N/A   Clear
4:53 AM 55.9 °F 45.0 °F 67% 29.94 in 10.0 mi NW 8.1 mph - N/A   Clear
5:53 AM 55.0 °F 45.0 °F 69% 29.95 in 10.0 mi WNW 4.6 mph - N/A   Clear
6:53 AM 57.0 °F 46.0 °F 67% 29.97 in 10.0 mi WNW 5.8 mph - N/A   Clear
7:53 AM 61.0 °F 46.0 °F 58% 29.98 in 10.0 mi Calm Calm - N/A   Clear
8:53 AM 64.9 °F 46.0 °F 50% 29.98 in 10.0 mi Calm Calm - N/A   Clear
9:53 AM 69.1 °F 48.0 °F 47% 29.97 in 10.0 mi NNW 11.5 mph - N/A   Clear
10:53 AM 75.0 °F 46.9 °F 37% 29.95 in 10.0 mi NW 9.2 mph - N/A   Clear
12:53 PM 82.9 °F 37.0 °F 19% 29.91 in 10.0 mi NNW 8.1 mph - N/A   Clear
2:53 PM 87.1 °F 39.9 °F 19% 29.88 in 10.0 mi NNW 13.8 mph - N/A   Clear
3:53 PM 89.1 °F 43.0 °F 20% 29.87 in 10.0 mi NW 10.4 mph - N/A   Clear
4:53 PM 88.0 °F 42.1 °F 20% 29.86 in 10.0 mi Variable 6.9 mph - N/A   Clear
5:53 PM 87.1 °F 45.0 °F 23% 29.85 in 10.0 mi NNW 15.0 mph - N/A   Clear
6:53 PM 84.0 °F 46.9 °F 27% 29.85 in 10.0 mi NW 10.4 mph - N/A   Clear
7:53 PM 80.1 °F 48.0 °F 32% 29.86 in 10.0 mi NNW 11.5 mph - N/A   Clear
8:53 PM 78.1 °F 46.9 °F 33% 29.87 in 10.0 mi NNW 12.7 mph - N/A   Clear
9:53 PM 75.0 °F 45.0 °F 34% 29.90 in 10.0 mi NW 15.0 mph 21.9 mph N/A   Clear
10:53 PM 73.9 °F 45.0 °F 35% 29.92 in 10.0 mi NW 12.7 mph - N/A   Clear
11:53 PM 73.0 °F 46.0 °F 38% 29.94 in 10.0 mi NNW 13.8 mph - N/A   Clear